| time (UTC) | temp F | wind direction | speed knots | gust knots | rain 1hr in | rain 24hr in | rain mn in | humidity % | barometer mb |
| 20260505174003 | 56 | 22 | 2.6 | 7.0 | 0.00 | 0.00 | 0.00 | 63 | 1009.8 |
| 20260505173503 | 56 | 27 | 2.6 | 7.0 | 0.00 | 0.00 | 0.00 | 63 | 1010.1 |
| 20260505173003 | 56 | 37 | 3.5 | 7.0 | 0.00 | 0.00 | 0.00 | 63 | 1010.0 |
| 20260505172503 | 56 | 27 | 3.5 | 7.0 | 0.00 | 0.00 | 0.00 | 64 | 1010.1 |
| 20260505172216 | 56 | 20 | 2.6 | 7.0 | 0.00 | 0.00 | 0.00 | 63 | 1010.0 |
| 20260505171503 | 56 | 31 | 1.7 | 6.1 | 0.00 | 0.00 | 0.00 | 63 | 1010.2 |
| 20260505171003 | 56 | 30 | 0.9 | 4.3 | 0.00 | 0.00 | 0.00 | 63 | 1010.1 |
| 20260505170503 | 56 | 28 | 1.7 | 7.0 | 0.00 | 0.00 | 0.00 | 63 | 1010.5 |
| 20260505170218 | 57 | 25 | 2.6 | 8.7 | 0.00 | 0.00 | 0.00 | 63 | 1010.3 |
| 20260505165503 | 57 | 28 | 3.5 | 8.7 | 0.00 | 0.00 | 0.00 | 63 | 1010.2 |
| 20260505165218 | 57 | 27 | 3.5 | 8.7 | 0.00 | 0.00 | 0.00 | 62 | 1010.2 |
| 20260505164503 | 57 | 22 | 3.5 | 8.7 | 0.00 | 0.00 | 0.00 | 62 | 1010.1 |
| 20260505164218 | 57 | 16 | 4.3 | 8.7 | 0.00 | 0.00 | 0.00 | 62 | 1010.2 |
| 20260505163503 | 57 | 18 | 4.3 | 8.7 | 0.00 | 0.00 | 0.00 | 61 | 1010.0 |
| 20260505163003 | 57 | 32 | 4.3 | 8.7 | 0.00 | 0.00 | 0.00 | 61 | 1010.1 |
| 20260505162717 | 57 | 35 | 4.3 | 8.7 | 0.00 | 0.00 | 0.00 | 61 | 1010.3 |
| 20260505162003 | 57 | 34 | 4.3 | 9.6 | 0.00 | 0.00 | 0.00 | 60 | 1010.2 |
| 20260505161503 | 57 | 27 | 4.3 | 9.6 | 0.00 | 0.00 | 0.00 | 60 | 1010.4 |
| 20260505161003 | 58 | 29 | 4.3 | 9.6 | 0.00 | 0.00 | 0.00 | 60 | 1010.3 |
| 20260505160503 | 58 | 32 | 4.3 | 8.7 | 0.00 | 0.00 | 0.00 | 60 | 1010.2 |
| 20260505153218 | 58 | 22 | 3.5 | 8.7 | 0.00 | 0.00 | 0.00 | 58 | 1010.5 |
| 20260505152503 | 59 | 25 | 3.5 | 10.4 | 0.00 | 0.00 | 0.00 | 58 | 1010.6 |
| 20260505152218 | 59 | 24 | 4.3 | 12.2 | 0.00 | 0.00 | 0.00 | 59 | 1010.5 |
| 20260505151503 | 59 | 27 | 4.3 | 12.2 | 0.00 | 0.00 | 0.00 | 58 | 1010.6 |
| 20260505151003 | 59 | 29 | 3.5 | 8.7 | 0.00 | 0.00 | 0.00 | 58 | 1010.5 |
| 20260505150503 | 59 | 29 | 3.5 | 8.7 | 0.00 | 0.00 | 0.00 | 57 | 1010.7 |
| 20260505140503 | 59 | 33 | 4.3 | 12.2 | 0.00 | 0.00 | 0.00 | 58 | 1010.5 |
| 20260505125003 | 59 | 21 | 5.2 | 12.2 | 0.00 | 0.00 | 0.00 | 63 | 1010.9 |
| 20260505124718 | 59 | 22 | 5.2 | 12.2 | 0.00 | 0.00 | 0.00 | 63 | 1011.0 |
| 20260505124003 | 59 | 26 | 4.3 | 9.6 | 0.00 | 0.00 | 0.00 | 64 | 1011.0 |
| 20260505123503 | 59 | 25 | 4.3 | 9.6 | 0.00 | 0.00 | 0.00 | 64 | 1010.9 |
| 20260505123003 | 59 | 27 | 4.3 | 9.6 | 0.00 | 0.00 | 0.00 | 64 | 1010.9 |
| 20260505122503 | 58 | 27 | 4.3 | 10.4 | 0.00 | 0.00 | 0.00 | 64 | 1010.7 |
| 20260505122003 | 58 | 26 | 3.5 | 10.4 | 0.00 | 0.00 | 0.00 | 64 | 1010.8 |
| 20260505121503 | 58 | 32 | 4.3 | 13.0 | 0.00 | 0.00 | 0.00 | 65 | 1011.0 |
| 20260505121221 | 58 | 33 | 4.3 | 13.0 | 0.00 | 0.00 | 0.00 | 65 | 1010.7 |
| 20260505120503 | 58 | 32 | 3.5 | 9.6 | 0.00 | 0.00 | 0.00 | 65 | 1010.9 |
| 20260505120004 | 58 | 31 | 4.3 | 10.4 | 0.00 | 0.00 | 0.00 | 65 | 1011.0 |
| 20260505115503 | 58 | 34 | 5.2 | 12.2 | 0.00 | 0.00 | 0.00 | 65 | 1011.1 |
| 20260505115003 | 58 | 41 | 5.2 | 12.2 | 0.00 | 0.00 | 0.00 | 65 | 1010.9 |
| 20260505114717 | 58 | 32 | 4.3 | 12.2 | 0.00 | 0.00 | 0.00 | 65 | 1011.0 |
| 20260505114003 | 58 | 20 | 3.5 | 12.2 | 0.00 | 0.00 | 0.00 | 66 | 1010.9 |
| 20260505113503 | 58 | 31 | 3.5 | 12.2 | 0.00 | 0.00 | 0.00 | 66 | 1011.0 |
| 20260505113003 | 58 | 33 | 4.3 | 10.4 | 0.00 | 0.00 | 0.00 | 67 | 1011.2 |
| 20260505112503 | 58 | 29 | 5.2 | 10.4 | 0.00 | 0.00 | 0.00 | 67 | 1011.0 |
| 20260505112003 | 57 | 24 | 3.5 | 9.6 | 0.00 | 0.00 | 0.00 | 67 | 1011.0 |
| 20260505111503 | 57 | 19 | 4.3 | 9.6 | 0.00 | 0.00 | 0.00 | 68 | 1011.0 |
| 20260505111003 | 57 | 16 | 4.3 | 8.7 | 0.00 | 0.00 | 0.00 | 68 | 1011.3 |
| 20260505110717 | 57 | 29 | 5.2 | 10.4 | 0.00 | 0.00 | 0.00 | 69 | 1011.2 |
| 20260505102218 | 56 | 30 | 3.5 | 10.4 | 0.00 | 0.00 | 0.00 | 71 | 1011.2 |
| 20260505101503 | 56 | 24 | 3.5 | 9.6 | 0.00 | 0.00 | 0.00 | 72 | 1011.4 |
| 20260505101003 | 56 | 28 | 2.6 | 9.6 | 0.00 | 0.00 | 0.00 | 73 | 1011.4 |
| 20260505100503 | 55 | 31 | 2.6 | 7.0 | 0.00 | 0.00 | 0.00 | 72 | 1011.4 |
| 20260505100003 | 55 | 24 | 2.6 | 9.6 | 0.00 | 0.00 | 0.00 | 72 | 1011.5 |
| 20260505095717 | 55 | 22 | 2.6 | 9.6 | 0.00 | 0.00 | 0.00 | 72 | 1011.5 |
| 20260505095003 | 55 | 30 | 2.6 | 9.6 | 0.00 | 0.00 | 0.00 | 72 | 1011.5 |
| 20260505094503 | 55 | 23 | 3.5 | 9.6 | 0.00 | 0.00 | 0.00 | 72 | 1011.5 |
| 20260505094003 | 55 | 13 | 4.3 | 10.4 | 0.00 | 0.00 | 0.00 | 73 | 1011.5 |
| 20260505093503 | 54 | 24 | 4.3 | 12.2 | 0.00 | 0.00 | 0.00 | 73 | 1011.5 |
| 20260505093003 | 54 | 31 | 4.3 | 13.0 | 0.00 | 0.00 | 0.00 | 73 | 1011.6 |
| 20260505092503 | 54 | 26 | 3.5 | 13.0 | 0.00 | 0.00 | 0.00 | 73 | 1011.7 |
| 20260505092003 | 54 | 27 | 3.5 | 9.6 | 0.00 | 0.00 | 0.00 | 73 | 1011.8 |
| 20260505091503 | 54 | 32 | 3.5 | 12.2 | 0.00 | 0.00 | 0.00 | 73 | 1011.6 |
| 20260505091003 | 54 | 32 | 4.3 | 12.2 | 0.00 | 0.00 | 0.00 | 74 | 1011.8 |
| 20260505090503 | 54 | 25 | 4.3 | 10.4 | 0.00 | 0.00 | 0.00 | 73 | 1011.8 |
| 20260505090217 | 54 | 24 | 3.5 | 10.4 | 0.00 | 0.00 | 0.00 | 73 | 1011.7 |
| 20260505085503 | 53 | 34 | 2.6 | 10.4 | 0.00 | 0.00 | 0.00 | 73 | 1011.8 |
| 20260505085003 | 53 | 36 | 3.5 | 12.2 | 0.00 | 0.00 | 0.00 | 73 | 1011.8 |
| 20260505084503 | 53 | 32 | 5.2 | 12.2 | 0.00 | 0.00 | 0.00 | 73 | 1011.9 |
| 20260505084003 | 53 | 29 | 5.2 | 10.4 | 0.00 | 0.00 | 0.00 | 75 | 1011.7 |
| 20260505083503 | 53 | 29 | 4.3 | 9.6 | 0.00 | 0.00 | 0.00 | 76 | 1011.8 |
| 20260505083003 | 53 | 19 | 4.3 | 12.2 | 0.00 | 0.00 | 0.00 | 76 | 1011.9 |
| 20260505082503 | 52 | 21 | 5.2 | 12.2 | 0.00 | 0.00 | 0.00 | 77 | 1011.9 |
| 20260505082003 | 52 | 25 | 4.3 | 12.2 | 0.00 | 0.00 | 0.00 | 79 | 1011.9 |
| 20260505081503 | 52 | 38 | 4.3 | 13.0 | 0.00 | 0.00 | 0.00 | 78 | 1011.7 |
| 20260505081003 | 52 | 47 | 4.3 | 13.0 | 0.00 | 0.00 | 0.00 | 79 | 1011.9 |
| 20260505080718 | 51 | 42 | 5.2 | 13.0 | 0.00 | 0.00 | 0.00 | 79 | 1011.8 |
| 20260505080217 | 51 | 28 | 4.3 | 10.4 | 0.00 | 0.00 | 0.00 | 79 | 1011.7 |
| 20260505075503 | 51 | 23 | 4.3 | 10.4 | 0.00 | 0.00 | 0.00 | 80 | 1011.7 |
| 20260505075217 | 51 | 33 | 4.3 | 9.6 | 0.00 | 0.00 | 0.00 | 80 | 1011.9 |
| 20260505074503 | 51 | 30 | 3.5 | 9.6 | 0.00 | 0.00 | 0.00 | 81 | 1011.8 |
| 20260505074003 | 51 | 22 | 3.5 | 9.6 | 0.00 | 0.00 | 0.00 | 81 | 1011.9 |
| 20260505073718 | 50 | 21 | 3.5 | 7.0 | 0.00 | 0.00 | 0.00 | 82 | 1011.9 |
| 20260505073003 | 50 | 33 | 3.5 | 10.4 | 0.00 | 0.00 | 0.00 | 83 | 1011.9 |
| 20260505072718 | 50 | 33 | 3.5 | 10.4 | 0.00 | 0.00 | 0.00 | 83 | 1012.1 |
| 20260505072003 | 49 | 22 | 3.5 | 12.2 | 0.00 | 0.00 | 0.00 | 83 | 1012.0 |
| 20260505071718 | 49 | 18 | 3.5 | 13.0 | 0.00 | 0.00 | 0.00 | 83 | 1012.0 |
| 20260505071217 | 49 | 19 | 3.5 | 13.0 | 0.00 | 0.00 | 0.00 | 83 | 1011.8 |
| 20260505070503 | 49 | 24 | 3.5 | 8.7 | 0.00 | 0.00 | 0.00 | 84 | 1012.2 |
| 20260505070003 | 49 | 26 | 4.3 | 10.4 | 0.00 | 0.00 | 0.00 | 84 | 1012.1 |
| 20260505065503 | 49 | 22 | 4.3 | 10.4 | 0.00 | 0.00 | 0.00 | 84 | 1011.9 |
| 20260505065003 | 49 | 26 | 4.3 | 8.7 | 0.00 | 0.00 | 0.00 | 85 | 1012.0 |
| 20260505064503 | 48 | 23 | 4.3 | 10.4 | 0.00 | 0.00 | 0.00 | 85 | 1012.2 |
| 20260505064003 | 48 | 23 | 5.2 | 10.4 | 0.00 | 0.00 | 0.00 | 85 | 1012.2 |
| 20260505063717 | 48 | 22 | 5.2 | 12.2 | 0.00 | 0.00 | 0.00 | 85 | 1012.2 |
| 20260505063003 | 47 | 21 | 4.3 | 12.2 | 0.00 | 0.00 | 0.00 | 86 | 1012.1 |
| 20260505062503 | 47 | 16 | 3.5 | 8.7 | 0.00 | 0.00 | 0.00 | 86 | 1012.2 |
| 20260505062003 | 47 | 20 | 3.5 | 8.7 | 0.00 | 0.00 | 0.00 | 86 | 1012.0 |
| 20260505061503 | 46 | 23 | 2.6 | 8.7 | 0.00 | 0.00 | 0.00 | 86 | 1012.2 |
| 20260505061003 | 46 | 20 | 1.7 | 7.0 | 0.00 | 0.00 | 0.00 | 86 | 1012.0 |
| 20260505060503 | 46 | 21 | 1.7 | 7.0 | 0.00 | 0.00 | 0.00 | 86 | 1012.2 |
| 20260505060003 | 46 | 20 | 2.6 | 7.0 | 0.00 | 0.00 | 0.00 | 86 | 1012.0 |
| 20260505055503 | 46 | 19 | 3.5 | 7.0 | 0.00 | 0.00 | 0.00 | 87 | 1012.1 |
| 20260505055003 | 46 | 22 | 3.5 | 7.0 | 0.00 | 0.00 | 0.00 | 87 | 1012.2 |
| 20260505054503 | 46 | 18 | 2.6 | 7.0 | 0.00 | 0.00 | 0.00 | 87 | 1012.0 |
| 20260505054003 | 46 | 13 | 3.5 | 8.7 | 0.00 | 0.00 | 0.00 | 87 | 1012.1 |
| 20260505053503 | 45 | 22 | 3.5 | 8.7 | 0.00 | 0.00 | 0.00 | 87 | 1012.2 |
| 20260505053003 | 45 | 22 | 2.6 | 8.7 | 0.00 | 0.00 | 0.00 | 87 | 1012.1 |
| 20260505052503 | 45 | 18 | 2.6 | 4.3 | 0.00 | 0.00 | 0.00 | 87 | 1012.1 |
| 20260505052003 | 44 | 17 | 2.6 | 6.1 | 0.00 | 0.00 | 0.00 | 87 | 1012.3 |
| 20260505051503 | 44 | 19 | 1.7 | 6.1 | 0.00 | 0.00 | 0.00 | 87 | 1012.2 |
| 20260505051003 | 44 | 21 | 1.7 | 4.3 | 0.00 | 0.00 | 0.00 | 87 | 1012.0 |
| 20260505050503 | 44 | 21 | 1.7 | 4.3 | 0.00 | 0.00 | 0.00 | 87 | 1012.0 |
| 20260505041503 | 43 | 17 | 0.0 | 2.6 | 0.00 | 0.00 | 0.00 | 86 | 1012.0 |
| 20260505041003 | 43 | 16 | 0.0 | 3.5 | 0.00 | 0.00 | 0.00 | 86 | 1012.3 |
| 20260505040503 | 43 | 17 | 0.9 | 4.3 | 0.00 | 0.00 | 0.00 | 86 | 1012.1 |
| 20260505040004 | 43 | 17 | 0.9 | 4.3 | 0.00 | 0.00 | 0.00 | 86 | 1012.2 |
| 20260505035503 | 43 | 16 | 0.9 | 4.3 | 0.00 | 0.00 | 0.00 | 86 | 1012.0 |
| 20260505035003 | 43 | 18 | 0.9 | 4.3 | 0.00 | 0.00 | 0.00 | 86 | 1012.0 |
| 20260505034723 | 43 | 17 | 0.9 | 4.3 | 0.00 | 0.00 | 0.00 | 86 | 1012.1 |
| 20260505034003 | 43 | 18 | 1.7 | 6.1 | 0.00 | 0.00 | 0.00 | 86 | 1012.2 |
| 20260505033503 | 43 | 18 | 1.7 | 6.1 | 0.00 | 0.00 | 0.00 | 86 | 1012.1 |
| 20260505033217 | 43 | 16 | 1.7 | 6.1 | 0.00 | 0.00 | 0.00 | 86 | 1012.1 |
| 20260505032503 | 44 | 17 | 1.7 | 3.5 | 0.00 | 0.00 | 0.00 | 86 | 1012.1 |
| 20260505032003 | 44 | 17 | 1.7 | 3.5 | 0.00 | 0.00 | 0.00 | 86 | 1012.3 |
| 20260505031503 | 43 | 17 | 0.9 | 3.5 | 0.00 | 0.00 | 0.00 | 86 | 1012.3 |
| 20260505031003 | 43 | 18 | 0.9 | 3.5 | 0.00 | 0.00 | 0.00 | 86 | 1012.2 |
| 20260505030503 | 43 | 16 | 0.9 | 2.6 | 0.00 | 0.00 | 0.00 | 86 | 1012.4 |
| 20260505030003 | 43 | 18 | 0.0 | 2.6 | 0.00 | 0.00 | 0.00 | 85 | 1012.3 |
| 20260505025503 | 44 | 18 | 0.0 | 3.5 | 0.00 | 0.00 | 0.00 | 86 | 1012.4 |
| 20260505025003 | 44 | 16 | 0.0 | 3.5 | 0.00 | 0.00 | 0.00 | 86 | 1012.4 |
| 20260505024718 | 43 | 16 | 0.0 | 2.6 | 0.00 | 0.00 | 0.00 | 85 | 1012.2 |
| 20260505024217 | 44 | 16 | 0.0 | 0.9 | 0.00 | 0.00 | 0.00 | 85 | 1012.3 |
| 20260505023718 | 44 | 0 | 0.0 | 0.0 | 0.00 | 0.00 | 0.00 | 85 | 1012.4 |
| 20260505023003 | 44 | 18 | 0.0 | 0.9 | 0.00 | 0.00 | 0.00 | 85 | 1012.2 |
| 20260505022503 | 44 | 18 | 0.0 | 0.9 | 0.00 | 0.00 | 0.00 | 85 | 1012.3 |
| 20260505022003 | 44 | 18 | 0.0 | 0.9 | 0.00 | 0.00 | 0.00 | 85 | 1012.4 |
| 20260505021503 | 44 | 0 | 0.0 | 0.0 | 0.00 | 0.00 | 0.00 | 84 | 1012.5 |
| 20260505021003 | 44 | 0 | 0.0 | 0.0 | 0.00 | 0.00 | 0.00 | 84 | 1012.5 |
| 20260505020503 | 44 | 17 | 0.0 | 2.6 | 0.00 | 0.00 | 0.00 | 84 | 1012.3 |
| 20260505020003 | 45 | 18 | 0.0 | 2.6 | 0.00 | 0.00 | 0.00 | 84 | 1012.4 |
| 20260505015503 | 45 | 19 | 0.9 | 3.5 | 0.00 | 0.00 | 0.00 | 84 | 1012.3 |
| 20260505015003 | 45 | 20 | 0.9 | 3.5 | 0.00 | 0.00 | 0.00 | 84 | 1012.7 |
| 20260505014503 | 45 | 20 | 0.9 | 3.5 | 0.00 | 0.00 | 0.00 | 84 | 1012.4 |
| 20260505014003 | 45 | 20 | 0.9 | 3.5 | 0.00 | 0.00 | 0.00 | 84 | 1012.3 |
| 20260505013503 | 45 | 21 | 0.0 | 2.6 | 0.00 | 0.00 | 0.00 | 85 | 1012.4 |
| 20260505013003 | 45 | 21 | 0.0 | 2.6 | 0.00 | 0.00 | 0.00 | 85 | 1012.4 |
| 20260505012503 | 45 | 24 | 0.9 | 2.6 | 0.00 | 0.00 | 0.00 | 84 | 1012.6 |
| 20260505012003 | 45 | 24 | 0.9 | 2.6 | 0.00 | 0.00 | 0.00 | 84 | 1012.5 |
| 20260505011503 | 45 | 24 | 0.0 | 2.6 | 0.00 | 0.00 | 0.00 | 84 | 1012.4 |
| 20260505011003 | 45 | 28 | 0.0 | 3.5 | 0.00 | 0.00 | 0.00 | 84 | 1012.6 |
| 20260505010503 | 45 | 28 | 0.0 | 3.5 | 0.00 | 0.00 | 0.00 | 84 | 1012.5 |
| 20260505010218 | 45 | 28 | 0.0 | 3.5 | 0.00 | 0.00 | 0.00 | 84 | 1012.4 |
| 20260505005503 | 45 | 26 | 0.0 | 0.9 | 0.00 | 0.00 | 0.00 | 84 | 1012.5 |
| 20260505005004 | 45 | 0 | 0.0 | 0.0 | 0.00 | 0.00 | 0.00 | 84 | 1012.7 |
| 20260505004503 | 45 | 0 | 0.0 | 0.0 | 0.00 | 0.00 | 0.00 | 84 | 1012.7 |
| 20260505004003 | 45 | 0 | 0.0 | 0.0 | 0.00 | 0.00 | 0.00 | 84 | 1012.5 |
| 20260505003503 | 45 | 0 | 0.0 | 0.0 | 0.00 | 0.00 | 0.00 | 84 | 1012.8 |
| 20260505003218 | 45 | 0 | 0.0 | 0.0 | 0.00 | 0.00 | 0.00 | 84 | 1012.7 |
| 20260505002503 | 45 | 0 | 0.0 | 0.0 | 0.00 | 0.00 | 0.00 | 84 | 1012.7 |
| 20260505002003 | 45 | 0 | 0.0 | 0.0 | 0.00 | 0.00 | 0.00 | 84 | 1012.9 |
| 20260505001717 | 45 | 0 | 0.0 | 0.0 | 0.00 | 0.00 | 0.00 | 84 | 1012.8 |
| 20260505001003 | 45 | 0 | 0.0 | 0.0 | 0.00 | 0.00 | 0.00 | 85 | 1012.9 |
| 20260505000717 | 45 | 0 | 0.0 | 0.0 | 0.00 | 0.00 | 0.00 | 85 | 1012.9 |
| 20260505000003 | 44 | 0 | 0.0 | 0.0 | 0.00 | 0.00 | 0.00 | 84 | 1013.0 |
| 20260504235503 | 44 | 0 | 0.0 | 0.0 | 0.00 | 0.00 | 0.00 | 84 | 1013.0 |
| 20260504235003 | 44 | 0 | 0.0 | 0.0 | 0.00 | 0.00 | 0.00 | 84 | 1012.9 |
| 20260504234503 | 44 | 0 | 0.0 | 0.0 | 0.00 | 0.00 | 0.00 | 83 | 1012.8 |
| 20260504234003 | 44 | 0 | 0.0 | 0.0 | 0.00 | 0.00 | 0.00 | 83 | 1013.0 |
| 20260504233503 | 45 | 0 | 0.0 | 0.0 | 0.00 | 0.00 | 0.00 | 83 | 1013.0 |
| 20260504233003 | 45 | 0 | 0.0 | 0.0 | 0.00 | 0.00 | 0.00 | 83 | 1013.0 |
| 20260504232717 | 45 | 0 | 0.0 | 0.0 | 0.00 | 0.00 | 0.00 | 83 | 1013.0 |
| 20260504232003 | 45 | 0 | 0.0 | 0.0 | 0.00 | 0.00 | 0.00 | 83 | 1012.9 |
| 20260504231503 | 45 | 0 | 0.0 | 0.0 | 0.00 | 0.00 | 0.00 | 82 | 1013.1 |
| 20260504231003 | 46 | 0 | 0.0 | 0.0 | 0.00 | 0.00 | 0.00 | 82 | 1013.2 |
| 20260504230503 | 46 | 0 | 0.0 | 0.0 | 0.00 | 0.00 | 0.00 | 82 | 1013.1 |
| 20260504230003 | 46 | 0 | 0.0 | 0.0 | 0.00 | 0.00 | 0.00 | 82 | 1013.0 |
| 20260504225503 | 46 | 0 | 0.0 | 0.0 | 0.00 | 0.00 | 0.00 | 82 | 1013.1 |
| 20260504225003 | 47 | 0 | 0.0 | 0.0 | 0.00 | 0.00 | 0.00 | 82 | 1013.0 |
| 20260504224503 | 47 | 0 | 0.0 | 0.0 | 0.00 | 0.00 | 0.00 | 82 | 1013.0 |
| 20260504224003 | 47 | 0 | 0.0 | 0.0 | 0.00 | 0.00 | 0.00 | 82 | 1013.1 |
| 20260504223503 | 47 | 0 | 0.0 | 0.0 | 0.00 | 0.00 | 0.00 | 82 | 1013.2 |
| 20260504223217 | 47 | 0 | 0.0 | 0.0 | 0.00 | 0.00 | 0.00 | 82 | 1013.2 |
| 20260504222503 | 47 | 0 | 0.0 | 0.0 | 0.00 | 0.00 | 0.00 | 82 | 1013.4 |
| 20260504222003 | 47 | 0 | 0.0 | 0.0 | 0.00 | 0.00 | 0.00 | 82 | 1013.4 |
| 20260504221503 | 47 | 0 | 0.0 | 0.0 | 0.00 | 0.00 | 0.00 | 82 | 1013.4 |
| 20260504221003 | 47 | 0 | 0.0 | 0.0 | 0.00 | 0.01 | 0.00 | 82 | 1013.4 |
| 20260504220718 | 47 | 0 | 0.0 | 0.0 | 0.00 | 0.01 | 0.00 | 82 | 1013.5 |
| 20260504220217 | 47 | 0 | 0.0 | 0.0 | 0.00 | 0.01 | 0.00 | 82 | 1013.3 |
| 20260504215503 | 47 | 0 | 0.0 | 0.0 | 0.00 | 0.01 | 0.01 | 82 | 1013.5 |
| 20260504215003 | 47 | 0 | 0.0 | 0.0 | 0.00 | 0.01 | 0.01 | 82 | 1013.6 |
| 20260504214718 | 47 | 0 | 0.0 | 0.0 | 0.00 | 0.01 | 0.01 | 82 | 1013.7 |
| 20260504214003 | 47 | 0 | 0.0 | 0.0 | 0.00 | 0.01 | 0.01 | 82 | 1013.7 |
| 20260504213503 | 48 | 0 | 0.0 | 0.0 | 0.00 | 0.01 | 0.01 | 81 | 1013.9 |
| 20260504213003 | 48 | 0 | 0.0 | 0.0 | 0.00 | 0.01 | 0.01 | 81 | 1013.6 |
| 20260504212503 | 48 | 0 | 0.0 | 0.0 | 0.00 | 0.01 | 0.01 | 81 | 1013.7 |
| 20260504212003 | 48 | 0 | 0.0 | 0.0 | 0.00 | 0.01 | 0.01 | 81 | 1013.6 |
| 20260504211503 | 48 | 0 | 0.0 | 0.0 | 0.00 | 0.01 | 0.01 | 81 | 1013.6 |
| 20260504211003 | 49 | 0 | 0.0 | 0.0 | 0.00 | 0.01 | 0.01 | 80 | 1013.7 |
| 20260504210503 | 49 | 0 | 0.0 | 0.0 | 0.00 | 0.01 | 0.01 | 80 | 1013.5 |
| 20260504210003 | 49 | 0 | 0.0 | 0.0 | 0.00 | 0.01 | 0.01 | 80 | 1013.5 |
| 20260504205503 | 49 | 0 | 0.0 | 0.0 | 0.00 | 0.01 | 0.01 | 80 | 1013.5 |
| 20260504205217 | 49 | 0 | 0.0 | 0.0 | 0.00 | 0.01 | 0.01 | 80 | 1013.4 |
| 20260504204718 | 49 | 0 | 0.0 | 0.0 | 0.00 | 0.01 | 0.01 | 80 | 1013.5 |
| 20260504204217 | 49 | 0 | 0.0 | 0.0 | 0.00 | 0.01 | 0.01 | 80 | 1013.6 |
| 20260504203718 | 49 | 0 | 0.0 | 0.0 | 0.00 | 0.01 | 0.01 | 80 | 1013.3 |
| 20260504203003 | 49 | 0 | 0.0 | 0.0 | 0.00 | 0.02 | 0.01 | 80 | 1013.4 |
| 20260504202503 | 49 | 0 | 0.0 | 0.0 | 0.00 | 0.02 | 0.01 | 80 | 1013.7 |
| 20260504202003 | 49 | 0 | 0.0 | 0.0 | 0.00 | 0.02 | 0.01 | 80 | 1013.6 |
| 20260504201717 | 49 | 0 | 0.0 | 0.0 | 0.00 | 0.02 | 0.01 | 79 | 1013.5 |
| 20260504201003 | 50 | 0 | 0.0 | 0.0 | 0.00 | 0.02 | 0.01 | 79 | 1013.5 |
| 20260504200503 | 50 | 0 | 0.0 | 0.0 | 0.00 | 0.02 | 0.01 | 79 | 1013.4 |
| 20260504200003 | 50 | 0 | 0.0 | 0.0 | 0.00 | 0.03 | 0.01 | 78 | 1013.4 |
| 20260504195503 | 50 | 0 | 0.0 | 0.0 | 0.00 | 0.03 | 0.01 | 78 | 1013.5 |
| 20260504195003 | 51 | 0 | 0.0 | 0.0 | 0.00 | 0.03 | 0.01 | 78 | 1013.6 |
| 20260504194503 | 51 | 0 | 0.0 | 0.0 | 0.00 | 0.03 | 0.01 | 78 | 1013.5 |
| 20260504194003 | 51 | 0 | 0.0 | 0.0 | 0.00 | 0.03 | 0.01 | 78 | 1013.4 |
| 20260504193503 | 52 | 0 | 0.0 | 0.0 | 0.00 | 0.03 | 0.01 | 77 | 1013.4 |
| 20260504193003 | 52 | 0 | 0.0 | 0.0 | 0.00 | 0.04 | 0.01 | 77 | 1013.2 |
| 20260504192503 | 52 | 0 | 0.0 | 0.0 | 0.00 | 0.04 | 0.01 | 77 | 1013.1 |
| 20260504192003 | 53 | 0 | 0.0 | 0.0 | 0.00 | 0.04 | 0.01 | 77 | 1013.2 |
| 20260504191503 | 53 | 0 | 0.0 | 0.0 | 0.00 | 0.05 | 0.01 | 77 | 1013.2 |
| 20260504191003 | 53 | 0 | 0.0 | 0.0 | 0.00 | 0.06 | 0.01 | 77 | 1013.1 |
| 20260504190503 | 53 | 0 | 0.0 | 0.0 | 0.00 | 0.06 | 0.01 | 77 | 1013.1 |
| 20260504190218 | 54 | 0 | 0.0 | 0.0 | 0.00 | 0.06 | 0.01 | 77 | 1012.9 |
| 20260504185503 | 54 | 0 | 0.0 | 0.0 | 0.00 | 0.06 | 0.01 | 77 | 1013.0 |
| 20260504185003 | 54 | 0 | 0.0 | 0.0 | 0.00 | 0.07 | 0.01 | 76 | 1012.9 |
| 20260504184503 | 54 | 0 | 0.0 | 0.0 | 0.00 | 0.07 | 0.01 | 76 | 1013.0 |
| 20260504184003 | 55 | 0 | 0.0 | 0.0 | 0.00 | 0.07 | 0.01 | 76 | 1013.0 |
| 20260504183503 | 55 | 0 | 0.0 | 0.0 | 0.00 | 0.07 | 0.01 | 76 | 1013.1 |
| 20260504183218 | 55 | 0 | 0.0 | 0.0 | 0.00 | 0.07 | 0.01 | 76 | 1013.0 |
| 20260504182717 | 55 | 0 | 0.0 | 0.0 | 0.00 | 0.07 | 0.01 | 75 | 1013.1 |
| 20260504182003 | 56 | 145 | 0.0 | 0.9 | 0.00 | 0.07 | 0.01 | 75 | 1012.8 |
| 20260504181503 | 56 | 145 | 0.0 | 0.9 | 0.00 | 0.07 | 0.01 | 75 | 1013.0 |
| 20260504181003 | 56 | 0 | 0.0 | 0.0 | 0.00 | 0.07 | 0.01 | 75 | 1012.8 |
| 20260504180503 | 56 | 124 | 0.0 | 0.9 | 0.00 | 0.07 | 0.01 | 75 | 1012.9 |
| 20260504180003 | 56 | 116 | 0.0 | 0.9 | 0.00 | 0.07 | 0.01 | 74 | 1012.6 |
| 20260504175503 | 56 | 109 | 0.0 | 0.9 | 0.00 | 0.07 | 0.01 | 74 | 1012.8 |
| 20260504175003 | 57 | 109 | 0.0 | 0.9 | 0.00 | 0.07 | 0.01 | 74 | 1012.8 |
| 20260504174503 | 57 | 0 | 0.0 | 0.0 | 0.00 | 0.07 | 0.01 | 74 | 1012.6 |
| 20260504174218 | 57 | 0 | 0.0 | 0.9 | 0.00 | 0.07 | 0.01 | 74 | 1012.8 |